Willimantic, CT

4:13 AM EDT on October 23, 2017 (GMT -0400)
Windham

Weather History for KIJD - September, 2013

Change the Weather History Date:

Monday, September 23, 2013

  Actual Average Record
Temperature  
Mean Temperature 53 °F -  
Max Temperature 64 °F 71 °F 90 °F (1970)
Min Temperature 43 °F 47 °F 29 °F (1953)
Degree Days  
Heating Degree Days 12    
Growing Degree Days 3 (Base 50)    
Moisture  
Dew Point 42 °F    
Average Humidity 69    
Maximum Humidity 93    
Minimum Humidity 45    
Precipitation  
Precipitation 0.00 in - - ()
Sea Level Pressure  
Sea Level Pressure 29.95 in    
Wind  
Wind Speed 4 mph (NNW)    
Max Wind Speed 13 mph    
Max Gust Speed 16 mph    
Visibility 10 miles    
Events      
Averages and records for this station are not official NWS values.
T = Trace of Precipitation, MM = Missing Value Source: NWS Daily Summary

Daily Weather History Graph

Daily Weather History Graph

Search for Another Location

Airport or City:

Trip Planner

Search our weather history database for the weather conditions in past years. The results will help you decide how hot, cold, wet, or windy it might be!

Date:

Astronomy

Sep. 23, 2013 Rise Set
Actual Time 6:37 AM EDT 6:43 PM EDT
Civil Twilight 6:09 AM EDT 7:11 PM EDT
Nautical Twilight 5:37 AM EDT 7:43 PM EDT
Astronomical Twilight 5:04 AM EDT 8:16 PM EDT
Moon 9:09 PM EDT 10:57 AM EDT
Length of Visible Light 13h 01m
Length of Day
12h 06m
Waning Gibbous, 81% of the Moon is Illuminated
Sep 23
Waning Gibbous
Sep 26
Last Quarter
Oct 4
New
Oct 11
First Quarter
Oct 18
Full

Hourly Weather History & Observations

Time (EDT) Temp. Windchill Dew Point Humidity Pressure Visibility Wind Dir Wind Speed Gust Speed Precip Events Conditions
12:52 AM 50.0 °F - 43.0 °F 77% 29.88 in 10.0 mi Calm Calm - N/A   Clear
1:52 AM 48.9 °F - 43.0 °F 80% 29.89 in 10.0 mi NNE 3.5 mph - N/A   Clear
2:52 AM 48.0 °F - 41.0 °F 77% 29.89 in 10.0 mi North 4.6 mph - N/A   Clear
3:52 AM 46.0 °F 44.8 °F 41.0 °F 83% 29.91 in 10.0 mi North 3.5 mph - N/A   Clear
4:52 AM 46.0 °F 43.9 °F 39.9 °F 79% 29.92 in 10.0 mi North 4.6 mph - N/A   Clear
5:52 AM 45.0 °F 42.6 °F 39.9 °F 82% 29.93 in 10.0 mi North 4.6 mph - N/A   Clear
6:52 AM 43.0 °F 40.3 °F 39.9 °F 89% 29.95 in 10.0 mi NNE 4.6 mph - N/A   Clear
7:52 AM 46.9 °F - 41.0 °F 80% 29.96 in 10.0 mi NE 3.5 mph - N/A   Clear
8:52 AM 50.0 °F - 41.0 °F 71% 29.96 in 10.0 mi West 5.8 mph - N/A   Clear
9:52 AM 54.0 °F - 39.9 °F 59% 29.96 in 10.0 mi NNW 11.5 mph - N/A   Clear
10:52 AM 55.9 °F - 39.9 °F 55% 29.96 in 10.0 mi NW 12.7 mph - N/A   Clear
11:52 AM 59.0 °F - 39.9 °F 49% 29.95 in 10.0 mi NNW 5.8 mph - N/A   Clear
12:52 PM 59.0 °F - 41.0 °F 51% 29.95 in 10.0 mi WNW 9.2 mph - N/A   Clear
1:52 PM 61.0 °F - 42.1 °F 50% 29.95 in 10.0 mi Variable 5.8 mph - N/A   Clear
2:52 PM 63.0 °F - 41.0 °F 45% 29.93 in 10.0 mi NNW 11.5 mph - N/A   Clear
3:52 PM 63.0 °F - 41.0 °F 45% 29.93 in 10.0 mi NNW 11.5 mph 16.1 mph N/A   Clear
4:52 PM 63.0 °F - 42.1 °F 46% 29.94 in 10.0 mi NW 8.1 mph - N/A   Clear
5:52 PM 61.0 °F - 42.1 °F 50% 29.95 in 10.0 mi NNW 5.8 mph - N/A   Clear
6:52 PM 57.0 °F - 43.0 °F 59% 29.98 in 10.0 mi NNW 4.6 mph - N/A   Clear
7:52 PM 52.0 °F - 44.1 °F 74% 29.99 in 10.0 mi NNW 4.6 mph - N/A   Clear
8:52 PM 48.0 °F - 45.0 °F 89% 30.00 in 10.0 mi North 3.5 mph - N/A   Clear
9:52 PM 46.9 °F - 44.1 °F 90% 30.01 in 10.0 mi Calm Calm - N/A   Clear
10:52 PM 46.0 °F - 44.1 °F 93% 30.03 in 10.0 mi Calm Calm - N/A   Clear
11:52 PM 44.1 °F - 42.1 °F 93% 30.04 in 10.0 mi Calm Calm - N/A   Clear